Location: Zilina
(49.2170°N, 18.7330°E)
Time: 00:13:32
(UTC+02:00)

ISS - Pass Details

Date: 01 April 2019
Orbit: 408 x 410 km, 51.6° (Epoch: 24 April)

Event Time Altitude Azimuth Distance (km) Brightness Sun altitude
Rises 20:10:26 0° 284° (WNW) 2,339 2.4 -9.5°
Reaches altitude 10° 20:12:33 10° 288° (WNW) 1,476 0.7 -9.8°
Maximum altitude 20:15:49 60° 9° (N) 474 -3.5 -10.3°
Enters shadow 20:18:23 15° 88° (E) 1,194 -2.0 -10.7°
